Location: Huntsville
(41.2590°N, 111.7678°W)
Time: 22:20:03
(UTC+00:00)

ISS - Pass Details

Date: 05 December 2021
Orbit: 413 x 422 km, 51.6° (Epoch: 25 January)

Event Time Altitude Azimuth Distance (km) Brightness Sun altitude
Rises 00:32:50 0° 309° (NW) 2,387 0.5 -6.7°
Reaches altitude 10° 00:35:16 10° 326° (NW) 1,517 -0.8 -7.1°
Maximum altitude 00:38:01 22° 19° (NNE) 976 -2.3 -7.6°
Enters shadow 00:40:38 11° 72° (ENE) 1,471 -1.7 -8.0°
